Regional Weather Roundup
Issued by NWS

Home | Current Version | Previous Version | Graphics & Text | Print | Product List | Glossary On
Versions: 1 2 3 4 5 6 7 8 9 10 11 12 13 14 15 16 17 18 19 20 21 22 23 24 25 26 27
000
ASUS45 KCYS 270410
RWRWY

WYOMING REGIONAL WEATHER ROUNDUP
NATIONAL WEATHER SERVICE CHEYENNE WY
1000 PM MDT TUE JUL 26 2016

NOTE:  "FAIR" INDICATES FEW OR NO CLOUDS BELOW 12,000 FEET
WITH NO SIGNIFICANT WEATHER AND/OR OBSTRUCTIONS TO VISIBILITY.

WYZ001-270500-
YELLOWSTONE NATIONAL PARK

CITY           SKY/WX    TMP DP  RH WIND       PRES   REMARKS
LK YELLOWSTONE   N/A     58  36  43 CALM      30.38R
W YELLOWSTONE  NOT AVBL

$$
WYZ002>013-054>058-071-098>099-270500-
NORTHERN WYOMING

CITY           SKY/WX    TMP DP  RH WIND       PRES   REMARKS
JACKSON        FAIR      68  36  30 NE8       30.22R
CODY           MOCLDY    72  39  30 NW6       30.17R
GREYBULL       FAIR      85  37  18 NW15      30.02R
WORLAND        FAIR      85  38  18 NW22G38   30.02R
SHERIDAN       FAIR      71  52  50 CALM      30.08R
BUFFALO        FAIR      69  54  58 W5        30.16R
GILLETTE       FAIR      72  54  53 E5        30.09F
HULETT         FAIR      70  55  60 NE5       30.12R
NEWCASTLE      FAIR      70  52  52 CALM      30.07R

$$
WYZ014>020-022>026-101>103-270500-
CENTRAL WYOMING

CITY           SKY/WX    TMP DP  RH WIND       PRES   REMARKS
BIG PINEY      FAIR      68  34  28 NW8       30.26R
PINEDALE       FAIR      63  32  31 NW3       30.26R
DUBOIS         MOCLDY    68  32  26 S12       30.28S
LANDER         FAIR      74  38  27 NW10      30.11R
RIVERTON       FAIR      80  32  17 N8        30.13R
CASPER         LGT RAIN  69  52  54 N9        30.20R
DOUGLAS          N/A    N/A N/A N/A MISG      30.13R

$$
WYZ021-027>030-104>119-270500-
SOUTHERN WYOMING

CITY           SKY/WX    TMP DP  RH WIND       PRES   REMARKS
EVANSTON       FAIR      70  17  13 SW9       30.26R
KEMMERER         N/A    N/A N/A N/A N8        30.28R
FORT BRIDGER   FAIR      75  19  12 W12       30.28R
ROCK SPRINGS   FAIR      73  30  20 SW8       30.22R
DIXON          FAIR      70  36  28 SE3       30.27R
RAWLINS        FAIR      73  34  23 SW7       30.23S
SARATOGA       FAIR      68  36  30 SE9       30.28R
LARAMIE        FAIR      68  35  29 VRB7      30.30R
CHEYENNE       FAIR      70  46  42 CALM      30.23R
TORRINGTON     FAIR      71  55  56 E16       30.05R
PINE BLUFFS    FAIR      64  46  52 N3        30.16S

$$




USA.gov is the U.S. government's official web portal to all federal, state and local government web resources and services.